EW8214 Weather Reports


time (UTC)temp
F
wind
direction
speed
knots
gust
knots
rain 1hr
in
rain 24hr
in
rain mn
in
humidity
%
barometer
mb
20260506211520 67 244 1.7 7.8 0.00 0.00 0.00 70 1016.0
20260506210016 68 281 1.7 6.1 0.00 0.00 0.00 69 1016.1
20260506204510 67 283 1.7 4.3 0.00 0.00 0.00 70 1016.2
20260506203009 67 295 0.9 5.2 0.00 0.00 0.00 71 1016.3
20260506201510 67 271 0.9 5.2 0.00 0.00 0.00 71 1016.4
20260506200007 66 290 2.6 7.8 0.00 0.00 0.00 71 1016.5
20260506194507 66 260 1.7 7.8 0.00 0.00 0.00 72 1016.4
20260506193008 67 261 1.7 7.8 0.00 0.00 0.00 72 1016.5
20260506191505 66 234 0.9 8.7 0.00 0.00 0.00 73 1016.5
20260506190006 66 319 0.9 5.2 0.00 0.00 0.00 74 1016.7
20260506184503 66 273 0.9 7.8 0.00 0.00 0.00 72 1016.7
20260506183003 66 311 1.7 4.3 0.00 0.00 0.00 75 1016.8
20260506181502 66 298 1.7 7.0 0.00 0.00 0.00 76 1016.9
20260506174558 66 251 1.7 7.0 0.00 0.00 0.00 72 1017.0
20260506173127 66 232 1.7 4.3 0.00 0.00 0.00 73 1017.1
20260506171602 66 269 0.0 5.2 0.00 0.00 0.00 75 1017.1
20260506170055 66 252 0.9 3.5 0.00 0.00 0.00 73 1017.0
20260506164600 66 255 0.0 1.7 0.00 0.00 0.00 72 1016.9
20260506163058 66 244 0.0 3.5 0.00 0.00 0.00 74 1016.9
20260506161554 64 285 0.0 2.6 0.00 0.00 0.00 76 1017.0
20260506160045 62 292 0.0 2.6 0.00 0.00 0.00 79 1017.0
20260506154540 61 290 0.0 2.6 0.00 0.00 0.00 80 1017.1
20260506153035 59 303 0.0 2.6 0.00 0.00 0.00 81 1017.2
20260506151531 58 298 0.0 2.6 0.00 0.00 0.00 86 1017.2
20260506150027 57 306 0.0 1.7 0.00 0.00 0.00 89 1017.3
20260506144531 56 306 0.0 0.9 0.00 0.00 0.00 94 1017.2
20260506143025 54 307 0.0 0.9 0.00 0.00 0.00 97 1017.1
20260506141518 51 307 0.0 0.9 0.00 0.00 0.00 97 1016.9
20260506140018 49 307 0.0 1.7 0.00 0.00 0.00 96 1016.9
20260506134517 49 306 0.0 1.7 0.00 0.00 0.00 96 1016.9
20260506133016 48 306 0.0 0.9 0.00 0.00 0.00 96 1016.9
20260506131516 48 306 0.0 0.9 0.00 0.00 0.00 95 1016.6
20260506130013 48 306 0.0 0.0 0.00 0.00 0.00 95 1016.3
20260506124511 48 306 0.0 0.9 0.00 0.00 0.00 95 1016.3
20260506123011 48 306 0.0 0.9 0.00 0.00 0.00 95 1016.3
20260506121512 48 306 0.0 0.9 0.00 0.00 0.00 94 1016.3
20260506120014 48 306 0.0 0.0 0.00 0.00 0.00 94 1016.4
20260506114506 48 306 0.0 0.9 0.00 0.00 0.00 94 1016.5
20260506113007 49 306 0.0 0.9 0.00 0.00 0.00 94 1016.5
20260506111504 49 306 0.0 0.0 0.00 0.00 0.00 94 1016.4
20260506110003 49 306 0.0 0.9 0.00 0.00 0.00 94 1016.5
20260506104501 50 306 0.0 0.0 0.00 0.00 0.00 94 1016.3
20260506103102 50 306 0.0 0.0 0.00 0.00 0.00 95 1016.3
20260506101617 50 306 0.0 0.9 0.00 0.00 0.00 94 1016.2
20260506100119 50 306 0.0 1.7 0.00 0.00 0.00 94 1016.2
20260506094555 51 306 0.0 0.0 0.00 0.00 0.00 94 1016.3
20260506093054 51 306 0.0 0.0 0.00 0.00 0.00 94 1016.3
20260506091553 51 306 0.0 0.0 0.00 0.00 0.00 94 1016.5
20260506090052 52 306 0.0 0.0 0.00 0.00 0.00 94 1016.4
20260506084614 52 306 0.0 0.0 0.00 0.00 0.00 93 1016.6
20260506083049 52 306 0.0 0.0 0.00 0.00 0.00 93 1016.5
20260506081553 52 306 0.0 0.0 0.00 0.00 0.00 92 1016.7
20260506073047 53 306 0.0 0.0 0.00 0.00 0.00 91 1016.5
20260506071539 54 306 0.0 0.0 0.00 0.00 0.00 91 1016.4
20260506061533 55 307 0.0 0.9 0.00 0.00 0.00 90 1016.1
20260506044551 56 308 0.0 1.7 0.00 0.00 0.00 87 1015.4
20260506043025 56 309 0.0 0.9 0.00 0.00 0.00 86 1015.4
20260506041525 56 309 0.0 0.9 0.00 0.00 0.00 85 1015.2
20260506040025 56 310 0.0 1.7 0.00 0.00 0.00 85 1015.0
20260506034543 57 310 0.0 0.9 0.00 0.00 0.00 84 1014.9
20260506033019 57 300 0.9 2.6 0.00 0.00 0.00 83 1014.6
20260506031519 57 292 0.9 2.6 0.00 0.00 0.00 82 1014.5
20260506030019 58 300 0.0 3.5 0.00 0.00 0.00 81 1014.2
20260506024516 58 302 0.0 2.6 0.00 0.00 0.00 81 1013.9
20260506023016 58 271 0.0 1.7 0.00 0.00 0.00 82 1013.7
20260506021515 59 250 0.9 3.5 0.00 0.00 0.00 80 1013.7
20260506020015 59 277 0.0 3.5 0.00 0.00 0.00 80 1013.5
20260506014517 59 236 0.9 7.8 0.00 0.00 0.00 79 1013.3
20260506013014 60 260 0.9 6.1 0.00 0.00 0.00 78 1013.3
20260506011517 61 250 0.9 7.0 0.00 0.00 0.00 77 1013.3
20260506010014 61 313 0.9 7.0 0.00 0.00 0.00 77 1013.4
20260506004528 62 251 0.9 6.1 0.00 0.00 0.00 77 1013.3
20260506003013 62 254 0.9 4.3 0.00 0.00 0.00 77 1013.1
20260506001511 62 275 0.9 4.3 0.00 0.00 0.00 78 1013.1
20260506000011 62 252 0.9 7.0 0.00 0.00 0.00 78 1013.1
20260505234515 63 242 0.9 7.8 0.00 0.00 0.00 78 1013.0
20260505233011 62 248 0.9 7.0 0.00 0.00 0.00 77 1013.2
20260505231510 63 267 1.7 7.8 0.00 0.00 0.00 76 1013.3
20260505230009 63 254 0.9 7.8 0.00 0.00 0.00 76 1013.3
20260505224508 64 254 0.9 7.0 0.00 0.00 0.00 74 1013.4
20260505223006 63 332 0.9 8.7 0.00 0.00 0.00 74 1013.5
20260505221507 63 252 0.9 7.0 0.00 0.00 0.00 73 1013.6
20260505220013 63 280 0.9 6.1 0.00 0.00 0.00 72 1013.7
20260505214505 63 245 0.9 7.0 0.00 0.00 0.00 75 1014.0
20260505213004 62 273 1.7 7.0 0.00 0.00 0.00 74 1014.1